• In Belarus
  • List of Countries
  • For 7 days
  • Water Temperature
  • Satellite Maps
  • Weather Map
  • Weather Widgets
  • user-avatar
    Login

    Hourly Weather Chiknayakanhalli

    Today, 14 November, Wednesday

    Time Temperature Precipitation Wind Pressure Humidity
    00:00 +20°C° 0 mm 1 mps 688 mmHg 45%
    01:00 +20°C° 0 mm 1 mps 688 mmHg 45%
    02:00 +19°C° 0 mm 1 mps 688 mmHg 46%
    03:00 +19°C° 0 mm 1 mps 688 mmHg 46%
    04:00 +17°C° 0 mm 0 mps 688 mmHg 46%
    05:00 +16°C° 0 mm 0 mps 688 mmHg 47%
    06:00 +18°C° 0 mm 0 mps 689 mmHg 44%
    07:00 +20°C° 0 mm 0 mps 689 mmHg 42%
    08:00 +22°C° 0 mm 0 mps 690 mmHg 40%
    09:00 +25°C° 0 mm 1 mps 690 mmHg 37%
    10:00 +27°C° 0 mm 2 mps 690 mmHg 34%
    11:00 +28°C° 0 mm 2 mps 690 mmHg 31%
    12:00 +29°C° 0 mm 2 mps 690 mmHg 30%
    13:00 +29°C° 0 mm 2 mps 689 mmHg 28%
    14:00 +30°C° 0 mm 2 mps 689 mmHg 27%
    15:00 +29°C° 0 mm 2 mps 689 mmHg 31%
    16:00 +28°C° 0 mm 2 mps 689 mmHg 35%
    17:00 +27°C° 0 mm 1 mps 688 mmHg 39%
    18:00 +25°C° 0 mm 1 mps 689 mmHg 41%
    19:00 +24°C° 0 mm 2 mps 689 mmHg 42%
    20:00 +23°C° 0 mm 2 mps 690 mmHg 43%
    21:00 +21°C° 0 mm 2 mps 690 mmHg 45%
    22:00 +21°C° 0 mm 1 mps 689 mmHg 47%
    23:00 +21°C° 0 mm 1 mps 689 mmHg 50%

    Tomorrow, 15 November, Thursday

    Time Temperature Precipitation Wind Pressure Humidity
    00:00 +20°C° 0 mm 1 mps 689 mmHg 51%
    01:00 +20°C° 0 mm 1 mps 689 mmHg 52%
    02:00 +19°C° 0 mm 1 mps 688 mmHg 53%
    03:00 +19°C° 0 mm 1 mps 688 mmHg 54%
    04:00 +19°C° 0 mm 1 mps 688 mmHg 55%
    05:00 +19°C° 0 mm 1 mps 689 mmHg 56%
    06:00 +20°C° 0 mm 1 mps 689 mmHg 54%
    07:00 +22°C° 0 mm 1 mps 690 mmHg 53%
    08:00 +24°C° 0 mm 2 mps 691 mmHg 51%
    09:00 +25°C° 0 mm 3 mps 691 mmHg 47%
    10:00 +27°C° 0 mm 4 mps 691 mmHg 42%
    11:00 +29°C° 0 mm 5 mps 691 mmHg 37%
    12:00 +29°C° 0 mm 5 mps 691 mmHg 37%
    13:00 +30°C° 0 mm 4 mps 690 mmHg 37%
    14:00 +30°C° 0 mm 4 mps 690 mmHg 37%
    15:00 +29°C° 0 mm 4 mps 689 mmHg 44%
    16:00 +28°C° 0 mm 3 mps 689 mmHg 50%
    17:00 +26°C° 0 mm 3 mps 689 mmHg 57%
    18:00 +25°C° 0 mm 3 mps 689 mmHg 59%
    19:00 +24°C° 0 mm 3 mps 690 mmHg 61%
    20:00 +22°C° 0 mm 3 mps 690 mmHg 64%
    21:00 +22°C° 0 mm 3 mps 690 mmHg 64%
    22:00 +23°C° 0 mm 2 mps 690 mmHg 65%
    23:00 +21°C° 0 mm 2 mps 690 mmHg 66%

    Day after tomorrow, 16 November, Friday

    Time Temperature Precipitation Wind Pressure Humidity
    00:00 +21°C° 0 mm 2 mps 690 mmHg 67%
    01:00 +20°C° 0 mm 2 mps 689 mmHg 69%
    02:00 +20°C° 0 mm 2 mps 689 mmHg 70%
    03:00 +20°C° 0 mm 2 mps 689 mmHg 72%
    04:00 +20°C° 0 mm 2 mps 689 mmHg 74%
    05:00 +19°C° 0 mm 2 mps 689 mmHg 77%
    06:00 +21°C° 0 mm 3 mps 690 mmHg 77%
    07:00 +22°C° 0 mm 5 mps 690 mmHg 77%
    08:00 +23°C° 0 mm 6 mps 691 mmHg 78%
    09:00 +24°C° 0 mm 6 mps 691 mmHg 76%
    10:00 +24°C° 0 mm 6 mps 691 mmHg 74%
    11:00 +26°C° 0 mm 6 mps 691 mmHg 73%
    12:00 +27°C° 0 mm 6 mps 690 mmHg 70%
    13:00 +28°C° 0 mm 6 mps 689 mmHg 67%
    14:00 +28°C° 0 mm 5 mps 689 mmHg 64%
    15:00 +28°C° 0 mm 5 mps 689 mmHg 67%
    16:00 +27°C° 0 mm 5 mps 689 mmHg 71%
    17:00 +26°C° 0 mm 4 mps 689 mmHg 74%
    18:00 +25°C° 0 mm 4 mps 689 mmHg 77%
    19:00 +23°C° 0 mm 4 mps 690 mmHg 81%
    20:00 +24°C° 0 mm 3 mps 690 mmHg 85%
    21:00 +22°C° 0 mm 3 mps 690 mmHg 87%
    22:00 +22°C° 0 mm 3 mps 690 mmHg 90%
    23:00 +21°C° 0 mm 3 mps 690 mmHg 92%

    17 November, Saturday

    Time Temperature Precipitation Wind Pressure Humidity
    00:00 +21°C° 0 mm 3 mps 689 mmHg 93%
    01:00 +21°C° 0 mm 3 mps 689 mmHg 95%
    02:00 +20°C° 0 mm 2 mps 688 mmHg 96%
    03:00 +20°C° 0 mm 2 mps 688 mmHg 96%
    04:00 +20°C° 0 mm 2 mps 688 mmHg 96%
    05:00 +20°C° 0 mm 2 mps 688 mmHg 96%
    06:00 +21°C° 0 mm 3 mps 689 mmHg 91%
    07:00 +22°C° 0 mm 4 mps 690 mmHg 86%
    08:00 +23°C° 0 mm 4 mps 691 mmHg 81%
    09:00 +26°C° 0 mm 5 mps 691 mmHg 74%
    10:00 +28°C° 0 mm 5 mps 691 mmHg 66%
    11:00 +29°C° 0 mm 5 mps 691 mmHg 58%
    12:00 +30°C° 0 mm 5 mps 690 mmHg 57%
    13:00 +30°C° 0 mm 4 mps 689 mmHg 56%
    14:00 +30°C° 0 mm 4 mps 688 mmHg 56%
    15:00 +29°C° 0.9 mm 4 mps 688 mmHg 61%
    16:00 +28°C° 0.9 mm 3 mps 688 mmHg 65%
    17:00 +27°C° 0.9 mm 3 mps 688 mmHg 70%
    18:00 +26°C° 1.2 mm 3 mps 689 mmHg 75%
    19:00 +25°C° 1.2 mm 3 mps 689 mmHg 79%
    20:00 +24°C° 1.2 mm 3 mps 690 mmHg 83%
    21:00 +24°C° 0.5 mm 3 mps 690 mmHg 85%
    22:00 +23°C° 0.5 mm 2 mps 690 mmHg 87%
    23:00 +23°C° 0.5 mm 2 mps 690 mmHg 89%

    18 November, Sunday

    Time Temperature Precipitation Wind Pressure Humidity
    00:00 +23°C° 0 mm 2 mps 689 mmHg 90%
    01:00 +21°C° 0 mm 2 mps 689 mmHg 92%
    02:00 +21°C° 0 mm 2 mps 688 mmHg 93%
    03:00 +21°C° 0 mm 2 mps 689 mmHg 93%
    04:00 +21°C° 0 mm 2 mps 689 mmHg 93%
    05:00 +21°C° 0 mm 2 mps 689 mmHg 94%
    06:00 +21°C° 0 mm 2 mps 690 mmHg 90%
    07:00 +23°C° 0 mm 2 mps 690 mmHg 86%
    08:00 +24°C° 0 mm 3 mps 691 mmHg 82%
    09:00 +26°C° 0 mm 3 mps 691 mmHg 75%
    10:00 +28°C° 0 mm 4 mps 691 mmHg 67%
    11:00 +29°C° 0 mm 4 mps 691 mmHg 59%
    12:00 +29°C° 0.4 mm 4 mps 690 mmHg 59%
    13:00 +30°C° 0.4 mm 4 mps 689 mmHg 58%
    14:00 +30°C° 0.4 mm 4 mps 689 mmHg 57%
    15:00 +29°C° 1.4 mm 3 mps 689 mmHg 62%
    16:00 +28°C° 1.4 mm 3 mps 689 mmHg 68%
    17:00 +27°C° 1.4 mm 3 mps 688 mmHg 73%
    18:00 +26°C° 1.6 mm 3 mps 689 mmHg 76%
    19:00 +25°C° 1.6 mm 3 mps 690 mmHg 79%
    20:00 +23°C° 1.6 mm 4 mps 690 mmHg 82%
    21:00 +23°C° 1.5 mm 4 mps 690 mmHg 84%
    22:00 +23°C° 1.5 mm 4 mps 690 mmHg 86%
    23:00 +22°C° 1.5 mm 4 mps 690 mmHg 89%

    19 November, Monday

    Time Temperature Precipitation Wind Pressure Humidity
    00:00 +22°C° 1.2 mm 3 mps 690 mmHg 90%
    01:00 +22°C° 1.2 mm 3 mps 690 mmHg 91%
    02:00 +21°C° 1.2 mm 3 mps 689 mmHg 92%
    03:00 +21°C° 0.3 mm 2 mps 689 mmHg 93%
    04:00 +21°C° 0.3 mm 2 mps 690 mmHg 94%
    05:00 +21°C° 0.3 mm 2 mps 690 mmHg 95%
    06:00 +21°C° 0 mm 3 mps 691 mmHg 91%
    07:00 +22°C° 0 mm 3 mps 691 mmHg 87%
    08:00 +23°C° 0 mm 4 mps 692 mmHg 84%
    09:00 +25°C° 0 mm 4 mps 692 mmHg 76%
    10:00 +27°C° 0 mm 4 mps 692 mmHg 69%
    11:00 +28°C° 0 mm 4 mps 692 mmHg 61%
    12:00 +29°C° 0 mm 4 mps 691 mmHg 58%
    13:00 +29°C° 0 mm 4 mps 691 mmHg 56%
    14:00 +30°C° 0 mm 4 mps 690 mmHg 53%
    15:00 +29°C° 0 mm 3 mps 690 mmHg 57%
    16:00 +28°C° 0 mm 3 mps 690 mmHg 62%
    17:00 +27°C° 0 mm 3 mps 690 mmHg 66%
    18:00 +26°C° 0.1 mm 3 mps 691 mmHg 70%
    19:00 +25°C° 0.1 mm 3 mps 691 mmHg 73%
    20:00 +24°C° 0.1 mm 3 mps 692 mmHg 77%
    21:00 +24°C° 0 mm 3 mps 692 mmHg 80%
    22:00 +24°C° 0 mm 3 mps 692 mmHg 82%
    23:00 +22°C° 0 mm 3 mps 691 mmHg 85%
    Show more